Flag for Canada Weather past 2 weeks in Prince George, British Columbia, Canada

Now
48 °F

Overcast.


Feels Like: 46 °F
Forecast: 46 / 58 °F
Wind: 6 mph from South

Location: Prince George

Current Time: Sep 2, 2014 at 3:57:10 AM

Latest Report: Sep 2, 2014 at 3:00 AM


Visibility: 9 mi

Pressure: 29.87 "Hg

Humidity: 94%

Dew point: 46 °F

Location of Prince GeorgeLocation

Historic Weather in Prince George — Graph

°F

Prince George temperature yesterday

Maximum temperature yesterday: 59 °F (at 3:00 PM)
Minimum temperature yesterday: 48 °F (at 12:00 AM)
Average temperature yesterday: 51 °F

Past Weeks' High & Low Weather Summary

 TemperatureHumidityPressure
High75 °F (Aug 26, 5:00 PM)100% (Aug 20, 4:00 AM)30.28 "Hg (Aug 20, 4:00 AM)
Low34 °F (Aug 23, 5:00 AM)29% (Aug 19, 5:00 PM)29.74 "Hg (Aug 30, 4:00 PM)
Average56 °F72%29.98 "Hg
* Reported Aug 18 2:00 AM — Sep 2 2:00 AM, Prince George, Weather by CustomWeather, © 2014

Note: Actual official high and low records may vary slightly from our data, if they occured in-between our weather recording intervals... More about our weather records

Advertising

Prince George weather history for previous 24 hours

 ConditionsComfort  
Time TempWeatherWind HumidityBarometerVisibility
2:00 AM
Sep 2
48 °FMostly cloudy.6 mph94%29.87 "Hg9 mi
1:00 AM48 °FLow clouds.3 mph94%29.87 "Hg9 mi
12:00 AM48 °FPassing clouds.7 mph94%29.87 "Hg9 mi
11:00 PM
Sep 1
50 °FLight rain. Overcast.6 mph88%29.87 "Hg9 mi
10:00 PM50 °FOvercast.9 mph94%29.89 "Hg9 mi
9:56 PM50 °FOvercast.8 mph94%29.88 "Hg9 mi
9:00 PM50 °FLight rain. Overcast.5 mph94%29.88 "Hg9 mi
8:00 PM52 °FLight rain. Mostly cloudy.10 mph88%29.87 "Hg9 mi
7:58 PM52 °FLight rain. Mostly cloudy.8 mph88%29.87 "Hg9 mi
7:00 PM52 °FMostly cloudy.3 mph94%29.85 "Hg9 mi
6:00 PM52 °FLight rain. Overcast.2 mph88%29.85 "Hg9 mi
5:00 PM54 °FHeavy rain. Cloudy.8 mph82%29.86 "Hg9 mi
4:00 PM59 °FPartly sunny.3 mph63%29.83 "Hg9 mi
3:00 PM59 °FScattered clouds.10 mph77%29.83 "Hg9 mi
2:00 PM55 °FScattered clouds.7 mph88%29.85 "Hg9 mi
1:57 PM55 °FScattered clouds.8 mph88%29.85 "Hg9 mi
1:00 PM55 °FLight rain. Broken clouds.14 mph88%29.86 "Hg9 mi
12:00 PM57 °FSunny.15 mph77%29.86 "Hg9 mi
11:00 AM54 °FBroken clouds.12 mph94%29.88 "Hg9 mi
10:00 AM52 °FPartly sunny.15 mph94%29.87 "Hg9 mi
9:00 AM50 °FMostly cloudy.12 mph94%29.88 "Hg9 mi
8:46 AM50 °FLow clouds.16 mph94%29.88 "Hg9 mi
8:00 AM50 °FLight rain. More clouds than sun.13 mph94%29.88 "Hg7 mi
7:00 AM50 °FOvercast.14 mph88%29.86 "Hg9 mi
6:00 AM48 °FOvercast.15 mph94%29.87 "Hg9 mi
5:00 AM48 °FLow clouds.12 mph94%29.87 "Hg9 mi
4:49 AM48 °FMostly cloudy.12 mph94%29.88 "Hg9 mi
4:00 AM48 °FLight rain. Overcast.9 mph94%29.89 "Hg9 mi
3:00 AM48 °FLight rain. Mostly cloudy.8 mph94%29.89 "Hg9 mi
Weather by CustomWeather, © 2014

See weather overviewHow to use our weather pages